Location: Melbourne
(37.8170°S, 144.9670°E)
Time: 06:11:31
(UTC+11:00)

deb Explorer IX - All Passes

Search period start: 01 November 2014 00:00
Search period end: 11 November 2014 00:00
Orbit: 558 x 1204 km, 38.8° (Epoch: 30 October)

Date Brightness Start Highest point End Pass type
(mag) Time Alt. Az. Time Alt. Az. Time Alt. Az.
01 Nov - 13:53:25 10° NW 13:57:21 38° NNE 14:01:41 10° E daylight
01 Nov - 15:40:45 10° W 15:45:15 87° S 15:50:30 10° E daylight
01 Nov - 17:28:40 10° W 17:33:36 87° S 17:39:34 10° E daylight
01 Nov - 19:16:38 10° W 19:21:54 48° NNW 19:28:10 10° NE daylight
01 Nov - 21:06:10 10° WNW 21:09:55 17° NW 21:13:59 10° N visible
02 Nov - 12:04:29 10° NNE 12:05:21 11° NE 12:06:12 10° NE daylight
02 Nov - 13:48:36 10° NW 13:52:39 47° NNE 13:57:04 10° E daylight
02 Nov - 15:36:10 10° W 15:40:38 82° S 15:45:48 10° E daylight
02 Nov - 17:24:04 10° W 17:28:57 87° NNW 17:34:48 10° ENE daylight
02 Nov - 19:12:06 10° W 19:17:09 40° NNW 19:23:04 10° NE daylight
02 Nov - 21:02:41 10° WNW 21:05:04 12° NW 21:07:33 10° NNW visible
03 Nov - 11:58:12 10° N 12:00:28 14° NE 12:02:46 10° ENE daylight
03 Nov - 13:43:47 10° WNW 13:47:54 57° NNE 13:52:22 10° E daylight
03 Nov - 15:31:32 10° W 15:35:56 79° S 15:41:02 10° E daylight
03 Nov - 17:19:24 10° W 17:24:13 79° NNW 17:29:56 10° ENE daylight
03 Nov - 19:07:34 10° W 19:12:18 32° NNW 19:17:49 10° NNE daylight
04 Nov - 11:52:35 10° NNW 11:55:33 19° NNE 11:58:32 10° ENE daylight
04 Nov - 13:38:56 10° WNW 13:43:05 67° NNE 13:47:34 10° E daylight
04 Nov - 15:26:48 10° W 15:31:11 78° S 15:36:11 10° E daylight
04 Nov - 17:14:40 10° W 17:19:23 69° NNW 17:24:58 10° ENE daylight
04 Nov - 19:03:02 10° W 19:07:23 26° NNW 19:12:21 10° NNE daylight
05 Nov - 11:47:10 10° NNW 11:50:35 24° NNE 11:54:01 10° E daylight
05 Nov - 13:34:03 10° WNW 13:38:14 78° NNE 13:42:41 10° E daylight
05 Nov - 15:22:00 10° W 15:26:21 79° S 15:31:17 10° E daylight
05 Nov - 17:09:52 10° W 17:14:29 59° NNW 17:19:53 10° ENE daylight
05 Nov - 18:58:34 10° W 19:02:23 20° NNW 19:06:39 10° NNE daylight
06 Nov - 11:41:49 10° NW 11:45:34 31° NNE 11:49:17 10° E daylight
06 Nov - 13:29:07 10° WNW 13:33:19 87° NNE 13:37:44 10° E daylight
06 Nov - 15:17:07 10° W 15:21:26 82° S 15:26:18 10° E daylight
06 Nov - 17:05:01 10° W 17:09:29 49° NNW 17:14:41 10° NE daylight
06 Nov - 18:54:16 10° WNW 18:57:18 16° NW 19:00:36 10° N daylight
07 Nov - 11:36:30 10° NW 11:40:30 38° NNE 11:44:25 10° E daylight
07 Nov - 13:24:08 10° W 13:28:20 85° S 13:32:43 10° E daylight
07 Nov - 15:12:09 10° W 15:16:27 88° S 15:21:14 10° E daylight
07 Nov - 17:00:07 10° W 17:04:24 40° NNW 17:09:20 10° NE daylight
07 Nov - 18:50:30 10° NW 18:52:08 11° NW 18:53:50 10° NNW daylight
08 Nov - 09:46:01 10° N 09:47:52 12° NE 09:49:40 10° ENE daylight
08 Nov - 11:31:12 10° NW 11:35:23 47° NNE 11:39:25 10° E daylight
08 Nov - 13:19:05 10° W 13:23:17 80° S 13:27:37 10° E daylight
08 Nov - 15:07:07 10° W 15:11:22 84° NNW 15:16:05 10° ENE daylight
08 Nov - 16:55:12 10° W 16:59:15 32° NNW 17:03:49 10° NE daylight
09 Nov - 09:39:39 10° N 09:42:36 17° NNE 09:45:23 10° ENE daylight
09 Nov - 11:25:52 10° WNW 11:30:12 58° NNE 11:34:20 10° E daylight
09 Nov - 13:13:57 10° W 13:18:10 77° S 13:22:28 10° E daylight
09 Nov - 15:01:59 10° W 15:06:13 75° NNW 15:10:50 10° ENE daylight
09 Nov - 16:50:17 10° W 16:54:00 26° NNW 16:58:07 10° NNE daylight
10 Nov - 09:33:38 10° NNW 09:37:17 22° NNE 09:40:38 10° E daylight
10 Nov - 11:20:32 10° WNW 11:24:58 69° NNE 11:29:08 10° E daylight
10 Nov - 13:08:44 10° W 13:12:58 77° S 13:17:15 10° E daylight
10 Nov - 14:56:47 10° W 15:00:58 64° NNW 15:05:29 10° ENE daylight
10 Nov - 16:45:24 10° WNW 16:48:39 20° NNW 16:52:12 10° NNE daylight
